[[{"header":{"parameterUnit":"m.s-1","parameterCategory":1,"la1":30.2991,"la2":30.254,"lo1":-89.0895,"lo2":-89.0444,"dy":0.0017,"dx":0.0017,"nx":28,"ny":28,"refTime":"2024-07-29T09:00:00:Z","depth":0,"parameterNumber":2,"parameterNumberName":"U-component_of_WINDS"},"data":[0,0,0,0,0,0,0,0,0,0,0,0,0,0,0,0,0,0,0,0,0,0,0,0,0,0,0,0,0,0,0,0,0,0,0,0,0,0,0,0,0,0,0,0,0,0,0,0,0,0,0,0,0,0,0,0,0,0,1.5433,1.5434,0,1.5487,1.5488,1.5488,1.5468,1.5467,1.5466,1.5465,1.5522,1.5525,1.5527,0,0,0,0,0,0,0,0,0,0,0,0,0,1.5313,1.5315,1.5433,1.5434,1.5434,1.5487,1.5488,1.5489,1.5469,1.5467,1.5466,1.5464,1.5521,1.5524,1.5528,0,0,0,0,0,0,0,0,0,0,0,0,0,1.5366,1.5316,1.5433,1.5431,1.5431,1.5487,1.5488,1.5489,1.5469,1.5467,1.5465,1.5463,1.552,1.5524,1.5528,1.559,0,0,1.554,1.5542,0,0,0,0,0,0,0,0,1.5363,1.5371,1.543,1.5431,1.5431,1.5469,1.5467,1.5523,1.5469,1.5455,1.5465,1.5463,1.5506,1.5511,1.5525,1.5593,1.5595,1.5541,1.5543,1.5545,1.5546,0,0,0,0,0,0,0,1.5359,1.5368,1.5455,1.5431,1.5432,1.5427,1.5433,1.5477,1.549,1.5456,1.5454,1.5461,1.5506,1.5522,1.5527,1.5596,1.5541,1.5544,1.5547,1.5548,1.5714,1.5716,0,0,0,0,0,0,1.5355,1.5365,1.5453,1.5456,1.5392,1.5431,1.5437,1.5459,1.549,1.5492,1.5463,1.546,1.5516,1.5522,1.5529,1.5601,1.5545,1.5549,1.5551,1.5712,1.5714,1.5717,0,0,0,0,0,0,1.5353,1.5363,1.5451,1.541,1.5421,1.5435,1.546,1.5461,1.5476,1.5495,1.5497,1.5476,1.5514,1.5523,1.5574,1.5602,1.555,1.5554,1.571,1.5713,1.5715,1.5747,0,0,0,0,0,0,1.535,1.5363,1.5386,1.5411,1.5423,1.5495,1.5462,1.5463,1.5483,1.548,1.5508,1.5511,1.5514,1.5568,1.5578,1.5607,1.5557,1.5707,1.5711,1.5714,1.5743,1.5751,1.5757,0,0,0,0,0,1.5345,1.5394,1.5387,1.5398,1.5453,1.5497,1.5504,1.5506,1.5486,1.5509,1.5521,1.551,1.5598,1.5574,1.5585,1.5615,1.5705,1.571,1.5714,1.574,1.5749,1.5757,0,0,0,0,0,0,1.5373,1.5397,1.539,1.5448,1.547,1.5493,1.5523,1.5515,1.5544,1.554,1.5542,1.5549,1.5601,1.5614,1.5586,1.5675,1.5649,1.5656,1.5665,1.5673,1.568,1.5675,1.556,0,0,0,0,0,1.5386,1.5419,1.5438,1.5488,1.5499,1.5509,1.5529,1.5528,1.5551,1.5561,1.5576,1.56,1.5632,1.5654,1.5685,1.5746,1.575,1.5772,1.5779,1.5784,1.579,1.582,1.5829,1.5731,1.5731,1.5731,0,0,1.5412,1.543,1.5451,1.5493,1.5511,1.5545,1.5517,1.5555,1.558,1.5567,1.5615,1.5627,1.5653,1.5709,1.5734,1.5721,1.5818,1.579,1.5794,1.5797,1.5826,1.5835,1.5843,1.5734,1.5734,1.5733,0,0,1.5478,1.5495,1.5536,1.5554,1.558,1.5586,1.5596,1.562,1.5627,1.5676,1.5666,1.5696,1.5753,1.5771,1.5788,1.586,1.585,1.587,1.5905,1.5934,1.5942,1.5949,1.5972,1.5981,1.5876,1.5876,1.5876,0,1.5507,1.5558,1.5559,1.5597,1.5615,1.5604,1.5646,1.5663,1.5698,1.5711,1.5697,1.5766,1.5784,1.5842,1.5859,1.5874,1.5884,1.5866,1.5941,1.5948,1.5954,1.5976,1.5985,1.5878,1.5878,1.5878,1.5877,0,1.5592,1.5628,1.5658,1.5691,1.5713,1.5753,1.576,1.5783,1.578,1.5788,1.5836,1.5857,1.5891,1.5905,1.5904,1.5963,1.5953,1.594,1.5913,1.5965,1.5986,1.5995,1.5881,1.588,1.588,1.5879,0,0,1.5675,1.5708,1.5719,1.5733,1.576,1.5787,1.5827,1.5859,1.5877,1.5903,1.5934,1.5982,1.5969,1.5988,1.5989,1.6015,1.6068,1.5998,1.5999,1.6008,1.6131,1.614,1.6149,1.6062,1.6064,1.6065,1.6128,0,1.5741,1.5808,1.581,1.5872,1.5903,1.5893,1.5927,1.5947,1.5956,1.5984,1.5994,1.6026,1.6008,1.6019,1.6045,1.6056,1.6092,1.6052,1.609,1.6092,1.6082,1.6161,1.617,1.6229,1.6137,1.6138,1.6139,0,1.5826,1.5852,1.5916,1.5938,1.5951,1.5981,1.601,1.6038,1.6061,1.6065,1.6086,1.6082,1.6121,1.6094,1.6147,1.612,1.6136,1.6144,1.6146,1.6148,1.6117,1.6163,1.6248,1.6255,1.6152,1.6151,1.615,0,1.5877,1.5928,1.5973,1.5986,1.6013,1.6034,1.6046,1.6067,1.6086,1.6112,1.6124,1.6154,1.6171,1.6194,1.6199,1.6179,1.6251,1.6225,1.6255,1.6255,1.6269,1.6268,1.6355,1.6283,1.6283,1.6283,1.6283,0,1.5948,1.5987,1.5996,1.6023,1.6066,1.6069,1.6112,1.6122,1.6141,1.617,1.6164,1.6191,1.6196,1.6225,1.6229,1.6271,1.6279,1.6283,1.6283,1.6282,1.6281,1.6291,1.6286,1.6285,1.6285,1.6284,1.6284,0,1.6011,1.6019,1.6066,1.6088,1.6094,1.6125,1.6143,1.6169,1.6177,1.6213,1.6222,1.6234,1.6267,1.6274,1.6313,1.6316,1.6365,1.6363,1.6357,1.6356,1.6384,1.6381,1.648,1.6492,1.6414,1.6415,1.6416,0,1.6055,1.6085,1.6109,1.6128,1.6141,1.6171,1.619,1.6193,1.6213,1.6241,1.6263,1.6295,1.632,1.6373,1.6385,1.6415,1.6412,1.6445,1.6416,1.6414,1.6409,1.6407,1.6409,1.6449,1.645,1.6451,1.6451,0,1.6131,1.6133,1.6161,1.6189,1.6212,1.6235,1.6256,1.6272,1.6278,1.6301,1.6334,1.6353,1.6393,1.6424,1.6454,1.6466,1.6459,1.646,1.6468,1.6467,1.6461,1.6462,1.6369,1.6458,1.6457,1.6457,1.6456,1.6456,1.6185,1.621,1.623,1.626,1.6277,1.6297,1.6322,1.6332,1.636,1.6391,1.6392,1.6428,1.6449,1.6487,1.6502,1.6529,1.6519,1.6531,1.6534,1.6536,1.6538,1.6458,1.6535,1.6535,1.6535,1.6535,1.6535,0,1.6258,1.6271,1.6299,1.6329,1.6352,1.6344,1.6368,1.6388,1.6419,1.6439,1.6464,1.6501,1.6531,1.6545,1.6575,1.6594,1.6592,1.6602,1.6599,1.6602,1.6546,1.6535,1.6603,1.6603,1.6603,1.6603,1.6603,1.6603,1.6299,1.634,1.6345,1.6394,1.6407,1.6441,1.6455,1.6473,1.6489,1.653,1.6555,1.6564,1.6581,1.6612,1.6639,1.6642,1.6653,1.6664,1.6665,1.6613,1.6606,1.6599,1.6589,1.6666,1.6666,1.6718,1.6719,1.6719]},{"header":{"parameterUnit":"m.s-1","parameterCategory":1,"la1":30.2991,"la2":30.254,"lo1":-89.0895,"lo2":-89.0444,"dy":0.0017,"dx":0.0017,"nx":28,"ny":28,"refTime":"2024-07-29T09:00:00:Z","depth":0,"parameterNumber":3,"parameterNumberName":"V-component_of_WINDS"},"data":[0,0,0,0,0,0,0,0,0,0,0,0,0,0,0,0,0,0,0,0,0,0,0,0,0,0,0,0,0,0,0,0,0,0,0,0,0,0,0,0,0,0,0,0,0,0,0,0,0,0,0,0,0,0,0,0,0,0,4.8259,4.8259,0,4.8211,4.821,4.8209,4.8114,4.8112,4.811,4.8109,4.8061,4.8062,4.8062,0,0,0,0,0,0,0,0,0,0,0,0,0,4.8271,4.8272,4.8259,4.8259,4.8258,4.8211,4.821,4.8209,4.8115,4.8112,4.811,4.8108,4.8061,4.8061,4.8062,0,0,0,0,0,0,0,0,0,0,0,0,0,4.8249,4.8272,4.8259,4.8205,4.8199,4.8211,4.821,4.8209,4.8115,4.8112,4.8109,4.8107,4.8061,4.8061,4.8062,4.8123,0,0,4.8064,4.8065,0,0,0,0,0,0,0,0,4.825,4.8249,4.8213,4.8209,4.8203,4.8165,4.8197,4.818,4.8116,4.8147,4.8109,4.8105,4.8098,4.8096,4.8093,4.8121,4.8119,4.8064,4.8065,4.8065,4.8065,0,0,0,0,0,0,0,4.8252,4.825,4.824,4.8213,4.8206,4.8183,4.8177,4.8193,4.8139,4.8144,4.8137,4.8133,4.8095,4.8092,4.8091,4.8118,4.8064,4.8065,4.8065,4.8066,4.8193,4.8196,0,0,0,0,0,0,4.8261,4.8252,4.8241,4.8238,4.822,4.8186,4.8178,4.818,4.8139,4.813,4.8135,4.8128,4.8093,4.809,4.8089,4.8156,4.8065,4.8066,4.8066,4.819,4.8194,4.8197,0,0,0,0,0,0,4.8262,4.8261,4.8243,4.8243,4.8239,4.8188,4.8191,4.8181,4.8178,4.8132,4.8122,4.8142,4.809,4.8088,4.8115,4.8154,4.8066,4.8067,4.8187,4.8191,4.8195,4.8293,0,0,0,0,0,0,4.8263,4.8262,4.8284,4.8244,4.824,4.827,4.8194,4.8182,4.818,4.817,4.8136,4.8128,4.8088,4.8114,4.8116,4.8153,4.8067,4.8183,4.8189,4.8194,4.8286,4.83,4.8312,0,0,0,0,0,4.8263,4.8314,4.8286,4.8285,4.8266,4.8272,4.827,4.8222,4.8183,4.8205,4.8175,4.8129,4.815,4.8118,4.8119,4.8157,4.818,4.8187,4.8193,4.828,4.8298,4.8312,0,0,0,0,0,0,4.8361,4.8308,4.8276,4.8315,4.8299,4.8256,4.8282,4.8242,4.8237,4.8228,4.817,4.8164,4.8198,4.818,4.8146,4.8213,4.8157,4.8165,4.8223,4.8239,4.8252,4.8255,4.8068,0,0,0,0,0,4.8387,4.8395,4.8349,4.8389,4.8382,4.8334,4.8335,4.83,4.8281,4.8273,4.8245,4.8229,4.8232,4.8235,4.8235,4.8284,4.8274,4.831,4.8323,4.8334,4.8341,4.8364,4.8379,4.8218,4.8218,4.8218,0,0,4.844,4.8413,4.8422,4.8407,4.839,4.8401,4.8329,4.8343,4.8351,4.8276,4.8299,4.8278,4.8256,4.8294,4.831,4.828,4.8383,4.8343,4.8352,4.8352,4.8373,4.8388,4.8402,4.8223,4.8222,4.8221,0,0,4.8543,4.8524,4.8554,4.8538,4.8513,4.8481,4.8489,4.8452,4.8435,4.8457,4.8401,4.841,4.8416,4.8402,4.8396,4.8494,4.8451,4.8496,4.8564,4.8588,4.8601,4.8612,4.8646,4.8659,4.8503,4.8503,4.8504,0,4.8613,4.8626,4.8575,4.8592,4.8587,4.852,4.855,4.8538,4.8515,4.8513,4.8481,4.8486,4.8467,4.85,4.8524,4.8522,4.8528,4.8499,4.8603,4.8613,4.8623,4.8655,4.8668,4.8509,4.8508,4.8508,4.8507,0,4.8713,4.8723,4.8751,4.8729,4.8727,4.8752,4.8704,4.8709,4.8674,4.8646,4.8669,4.8644,4.8637,4.8642,4.8609,4.8671,4.8654,4.8613,4.8556,4.8645,4.8673,4.8685,4.8517,4.8515,4.8513,4.8512,0,0,4.8874,4.8824,4.8835,4.8824,4.8792,4.8799,4.882,4.8813,4.8818,4.8805,4.8821,4.8827,4.8789,4.8783,4.8748,4.8769,4.8847,4.8725,4.8724,4.8748,4.8913,4.8942,4.8957,4.8819,4.8821,4.8823,4.8914,0,4.8969,4.9001,4.8956,4.8998,4.9007,4.8943,4.8961,4.8944,4.8918,4.8922,4.8894,4.8899,4.8849,4.8845,4.8863,4.8834,4.8879,4.8827,4.8833,4.8833,4.8839,4.8972,4.9004,4.9091,4.8925,4.8927,4.8928,0,4.9083,4.9075,4.9118,4.9083,4.9085,4.9102,4.9091,4.9096,4.9075,4.9055,4.9048,4.9005,4.9024,4.897,4.8994,4.896,4.896,4.8946,4.8948,4.8946,4.8885,4.8972,4.9118,4.9131,4.8946,4.8944,4.8943,0,4.9195,4.9195,4.922,4.9213,4.9173,4.9186,4.9171,4.9147,4.9145,4.9137,4.9135,4.9129,4.9126,4.9122,4.908,4.9044,4.9109,4.9052,4.9093,4.9094,4.9108,4.9108,4.9255,4.9111,4.9111,4.9111,4.911,0,4.9304,4.9333,4.9269,4.9285,4.9315,4.9263,4.9295,4.9273,4.9252,4.9263,4.9208,4.9219,4.9163,4.9168,4.9136,4.9161,4.916,4.9144,4.9134,4.9148,4.915,4.9146,4.9138,4.9114,4.9113,4.9113,4.9112,0,4.9433,4.9392,4.9415,4.9376,4.9366,4.9391,4.9357,4.937,4.9341,4.9355,4.9355,4.931,4.9313,4.927,4.9266,4.9244,4.9283,4.9264,4.929,4.9283,4.9326,4.9322,4.9475,4.9492,4.9339,4.9341,4.9342,0,4.9505,4.9525,4.9488,4.949,4.9477,4.9483,4.948,4.9431,4.9431,4.9409,4.9425,4.9423,4.9419,4.9428,4.9395,4.9391,4.937,4.9424,4.9369,4.9382,4.9369,4.9368,4.9369,4.9435,4.9437,4.9438,4.944,0,4.9636,4.9614,4.9613,4.9605,4.9604,4.9596,4.9584,4.9589,4.9535,4.9538,4.954,4.9538,4.9533,4.9532,4.9522,4.9505,4.9464,4.9457,4.9466,4.9479,4.9493,4.9485,4.932,4.9454,4.9452,4.9451,4.945,4.945,4.9737,4.9752,4.9728,4.9728,4.9714,4.9704,4.9714,4.9686,4.9687,4.9679,4.965,4.9657,4.9636,4.9618,4.9606,4.9611,4.9585,4.9598,4.9601,4.9605,4.9612,4.9494,4.9609,4.9609,4.9608,4.9608,4.9608,0,4.9864,4.9845,4.9847,4.9831,4.9832,4.9792,4.9777,4.978,4.9787,4.9771,4.9768,4.9771,4.977,4.9738,4.9733,4.9743,4.9724,4.9743,4.9741,4.9738,4.9637,4.9629,4.9759,4.9759,4.9759,4.9759,4.9759,4.9759,4.993,4.9953,4.9929,4.9944,4.9925,4.9932,4.9926,4.9917,4.9903,4.9909,4.9908,4.9886,4.9863,4.9856,4.9854,4.9844,4.9845,4.9871,4.9855,4.976,4.9746,4.9731,4.9723,4.9872,4.9872,4.9955,4.9956,4.9957]}]]